When you browse on this site, cookies collect data to enhance your experience and personalize the content and advertising you see.
Visit our Privacy Policy to learn more. By continuing to use the site, you agree to this use of cookies and data.
  • în România
  • Lista ţărilor
  • Pe 7 zile
  • Temperatura apei
  • Hartă satelitară
  • Meteo pe hartă
  • Widget-uri
  • user-avatar
    Intrare

    Meteo pe oră la Álftanes

    Astăzi, 20 Ianuarie, Duminică

    Timp Temperatura Precipitaţii Vânt Presiune Umiditate
    00:00 +5°C° 0.1 mm 0 m/s 755 mmHg 94%
    01:00 +6°C° 0.1 mm 1 m/s 756 mmHg 95%
    02:00 +6°C° 0.1 mm 1 m/s 756 mmHg 95%
    03:00 +6°C° 0.4 mm 2 m/s 757 mmHg 94%
    04:00 +5°C° 0.4 mm 4 m/s 758 mmHg 93%
    05:00 +5°C° 0 mm 4 m/s 758 mmHg 93%
    06:00 +5°C° 0 mm 4 m/s 759 mmHg 92%
    07:00 +5°C° 0 mm 5 m/s 760 mmHg 91%
    08:00 +5°C° 0 mm 5 m/s 761 mmHg 90%
    09:00 +5°C° 0 mm 5 m/s 762 mmHg 86%
    10:00 +5°C° 0 mm 5 m/s 762 mmHg 82%
    11:00 +6°C° 0 mm 4 m/s 763 mmHg 79%
    12:00 +6°C° 0 mm 4 m/s 764 mmHg 78%
    13:00 +6°C° 0 mm 4 m/s 764 mmHg 77%
    14:00 +7°C° 0 mm 3 m/s 764 mmHg 76%
    15:00 +4°C° 0 mm 3 m/s 765 mmHg 81%
    16:00 +4°C° 0 mm 2 m/s 765 mmHg 85%
    17:00 +3°C° 0 mm 2 m/s 766 mmHg 89%
    18:00 +2°C° 0 mm 2 m/s 766 mmHg 89%
    19:00 +3°C° 0 mm 1 m/s 766 mmHg 89%
    20:00 +2°C° 0 mm 1 m/s 767 mmHg 90%
    21:00 +2°C° 0 mm 1 m/s 767 mmHg 89%
    22:00 +2°C° 0 mm 1 m/s 767 mmHg 89%
    23:00 +2°C° 0 mm 1 m/s 767 mmHg 89%

    Mâine, 21 Ianuarie, Luni

    Timp Temperatura Precipitaţii Vânt Presiune Umiditate
    00:00 +2°C° 0 mm 1 m/s 766 mmHg 89%
    01:00 +2°C° 0 mm 1 m/s 766 mmHg 89%
    02:00 +1°C° 0 mm 2 m/s 765 mmHg 89%
    03:00 +1°C° 0 mm 2 m/s 765 mmHg 89%
    04:00 +1°C° 0 mm 2 m/s 764 mmHg 88%
    05:00 +1°C° 0 mm 2 m/s 763 mmHg 88%
    06:00 0°C° 0 mm 3 m/s 763 mmHg 86%
    07:00 0°C° 0 mm 3 m/s 762 mmHg 84%
    08:00 0°C° 0 mm 4 m/s 761 mmHg 82%
    09:00 +1°C° 0 mm 5 m/s 760 mmHg 80%
    10:00 +2°C° 0 mm 6 m/s 758 mmHg 79%
    11:00 +3°C° 0 mm 7 m/s 757 mmHg 77%
    12:00 +4°C° 0.7 mm 7 m/s 755 mmHg 81%
    13:00 +4°C° 0.7 mm 8 m/s 754 mmHg 85%
    14:00 +4°C° 0.7 mm 8 m/s 753 mmHg 88%
    15:00 +3°C° 0.9 mm 7 m/s 753 mmHg 87%
    16:00 +1°C° 0.9 mm 5 m/s 752 mmHg 86%
    17:00 0°C° 0.9 mm 4 m/s 752 mmHg 85%
    18:00 0°C° 0 mm 4 m/s 752 mmHg 85%
    19:00 -1°C° 0 mm 4 m/s 752 mmHg 85%
    20:00 -1°C° 0 mm 4 m/s 752 mmHg 84%
    21:00 -1°C° 0 mm 4 m/s 751 mmHg 84%
    22:00 -1°C° 0 mm 4 m/s 751 mmHg 84%
    23:00 -1°C° 0 mm 4 m/s 751 mmHg 83%

    Poimâine, 22 Ianuarie, Marţi

    Timp Temperatura Precipitaţii Vânt Presiune Umiditate
    00:00 -1°C° 0.1 mm 4 m/s 751 mmHg 83%
    01:00 -1°C° 0.1 mm 4 m/s 750 mmHg 84%
    02:00 -1°C° 0.1 mm 4 m/s 750 mmHg 84%
    03:00 -1°C° 0 mm 4 m/s 750 mmHg 84%
    04:00 -1°C° 0 mm 4 m/s 750 mmHg 83%
    05:00 -2°C° 0 mm 4 m/s 749 mmHg 83%
    06:00 -2°C° 0 mm 4 m/s 750 mmHg 83%
    07:00 -2°C° 0 mm 4 m/s 750 mmHg 84%
    08:00 -2°C° 0 mm 4 m/s 750 mmHg 84%
    09:00 -1°C° 0 mm 4 m/s 750 mmHg 81%
    10:00 0°C° 0 mm 5 m/s 750 mmHg 78%
    11:00 +1°C° 0 mm 5 m/s 750 mmHg 75%
    12:00 +1°C° 0.1 mm 5 m/s 750 mmHg 76%
    13:00 +1°C° 0.1 mm 5 m/s 750 mmHg 77%
    14:00 +1°C° 0.1 mm 5 m/s 750 mmHg 78%
    15:00 +1°C° 0.1 mm 4 m/s 750 mmHg 81%
    16:00 +1°C° 0.1 mm 3 m/s 750 mmHg 84%
    17:00 +1°C° 0.1 mm 3 m/s 750 mmHg 87%
    18:00 +1°C° 0 mm 3 m/s 750 mmHg 89%
    19:00 +2°C° 0 mm 2 m/s 750 mmHg 91%
    20:00 +1°C° 0 mm 2 m/s 750 mmHg 93%
    21:00 +2°C° 0.1 mm 2 m/s 751 mmHg 93%
    22:00 +2°C° 0.1 mm 2 m/s 751 mmHg 94%
    23:00 +2°C° 0.1 mm 2 m/s 751 mmHg 94%

    23 Ianuarie, Miercuri

    Timp Temperatura Precipitaţii Vânt Presiune Umiditate
    00:00 +2°C° 0.1 mm 2 m/s 751 mmHg 95%
    01:00 +2°C° 0.1 mm 2 m/s 751 mmHg 96%
    02:00 +3°C° 0.1 mm 2 m/s 751 mmHg 97%
    03:00 +4°C° 0.1 mm 1 m/s 751 mmHg 96%
    04:00 +3°C° 0.1 mm 1 m/s 751 mmHg 96%
    05:00 +3°C° 0.1 mm 1 m/s 752 mmHg 96%
    06:00 +3°C° 0 mm 1 m/s 752 mmHg 96%
    07:00 +3°C° 0 mm 1 m/s 753 mmHg 95%
    08:00 +3°C° 0 mm 1 m/s 753 mmHg 95%
    09:00 +4°C° 0 mm 1 m/s 753 mmHg 94%
    10:00 +5°C° 0 mm 1 m/s 754 mmHg 93%
    11:00 +5°C° 0 mm 2 m/s 754 mmHg 92%
    12:00 +5°C° 0 mm 2 m/s 754 mmHg 92%
    13:00 +5°C° 0 mm 2 m/s 754 mmHg 93%
    14:00 +5°C° 0 mm 2 m/s 754 mmHg 94%
    15:00 +5°C° 0.1 mm 2 m/s 754 mmHg 95%
    16:00 +5°C° 0.1 mm 2 m/s 754 mmHg 97%
    17:00 +5°C° 0.1 mm 2 m/s 754 mmHg 98%
    18:00 +5°C° 0.3 mm 2 m/s 754 mmHg 98%
    19:00 +6°C° 0.3 mm 2 m/s 754 mmHg 98%
    20:00 +6°C° 0.3 mm 2 m/s 755 mmHg 98%
    21:00 +7°C° 0.1 mm 3 m/s 755 mmHg 98%
    22:00 +7°C° 0.1 mm 4 m/s 755 mmHg 97%
    23:00 +8°C° 0.1 mm 4 m/s 755 mmHg 97%

    24 Ianuarie, Joi

    Timp Temperatura Precipitaţii Vânt Presiune Umiditate
    00:00 +8°C° 0.1 mm 4 m/s 755 mmHg 97%
    01:00 +8°C° 0.1 mm 4 m/s 755 mmHg 96%
    02:00 +8°C° 0.1 mm 4 m/s 755 mmHg 96%
    03:00 +8°C° 0.1 mm 4 m/s 755 mmHg 96%
    04:00 +8°C° 0.1 mm 4 m/s 756 mmHg 96%
    05:00 +8°C° 0.1 mm 4 m/s 756 mmHg 96%
    06:00 +9°C° 0.1 mm 5 m/s 756 mmHg 95%
    07:00 +9°C° 0.1 mm 5 m/s 757 mmHg 95%
    08:00 +9°C° 0.1 mm 5 m/s 757 mmHg 94%
    09:00 +9°C° 0 mm 5 m/s 757 mmHg 92%
    10:00 +9°C° 0 mm 5 m/s 758 mmHg 91%
    11:00 +9°C° 0 mm 5 m/s 758 mmHg 90%
    12:00 +9°C° 0.1 mm 5 m/s 758 mmHg 90%
    13:00 +8°C° 0.1 mm 5 m/s 758 mmHg 90%
    14:00 +8°C° 0.1 mm 5 m/s 758 mmHg 90%
    15:00 +8°C° 0 mm 5 m/s 759 mmHg 90%
    16:00 +8°C° 0 mm 4 m/s 759 mmHg 90%
    17:00 +8°C° 0 mm 4 m/s 759 mmHg 91%
    18:00 +8°C° 0 mm 4 m/s 759 mmHg 90%
    19:00 +8°C° 0 mm 4 m/s 760 mmHg 90%
    20:00 +8°C° 0 mm 4 m/s 760 mmHg 89%
    21:00 +8°C° 0 mm 4 m/s 760 mmHg 90%
    22:00 +8°C° 0 mm 4 m/s 760 mmHg 92%
    23:00 +8°C° 0 mm 4 m/s 760 mmHg 93%

    25 Ianuarie, Vineri

    Timp Temperatura Precipitaţii Vânt Presiune Umiditate
    00:00 +8°C° 0 mm 4 m/s 760 mmHg 92%
    01:00 +8°C° 0 mm 4 m/s 760 mmHg 91%
    02:00 +8°C° 0 mm 4 m/s 760 mmHg 90%
    03:00 +7°C° 0 mm 4 m/s 760 mmHg 91%
    04:00 +7°C° 0 mm 4 m/s 759 mmHg 92%
    05:00 +6°C° 0 mm 4 m/s 759 mmHg 94%
    06:00 +6°C° 0 mm 4 m/s 759 mmHg 93%
    07:00 +7°C° 0 mm 5 m/s 759 mmHg 93%
    08:00 +7°C° 0 mm 5 m/s 759 mmHg 92%
    09:00 +7°C° 0.1 mm 6 m/s 759 mmHg 92%
    10:00 +8°C° 0.1 mm 6 m/s 759 mmHg 92%
    11:00 +9°C° 0.1 mm 6 m/s 759 mmHg 92%
    12:00 +9°C° 0.2 mm 6 m/s 758 mmHg 92%
    13:00 +9°C° 0.2 mm 6 m/s 758 mmHg 93%
    14:00 +9°C° 0.2 mm 6 m/s 757 mmHg 94%
    15:00 +9°C° 0.7 mm 5 m/s 757 mmHg 94%
    16:00 +9°C° 0.7 mm 5 m/s 756 mmHg 95%
    17:00 +9°C° 0.7 mm 5 m/s 756 mmHg 95%
    18:00 +9°C° 0.2 mm 5 m/s 755 mmHg 94%
    19:00 +9°C° 0.2 mm 6 m/s 755 mmHg 94%
    20:00 +9°C° 0.2 mm 7 m/s 754 mmHg 93%
    21:00 +9°C° 1.4 mm 7 m/s 753 mmHg 93%
    22:00 +8°C° 1.4 mm 7 m/s 753 mmHg 93%
    23:00 +8°C° 1.4 mm 7 m/s 752 mmHg 93%
    Arată mai mult